STARLINK-1587, 46157

Orbit data source: Space-Track

STARLINK-1587, 46157 is a payload satellite owned by SpaceX/Seattle (US) in LEO that was launched on Tue, 18 Aug 2020 UTC via an FALCON 9 launch vehicle from the Air Force Eastern Test Range (AFETR). Payload-class satellites include a variety of spacecraft equipped with specific instruments for various scientific and technological missions. These include communications satellites like Starlink; space stations such as the ISS; scientific satellites like the Hubble; Earth observation satellites from companies like Planet Labs, Umbra, and HawkEye 360; GPS; miniature CubeSats for education and research; and military/defense satellites.

Loading next visibility...
Identifier
46157, 2020-057AS
Orbit
LEO
Country
Flag of USUS
Related business
Manufacturer
SpaceX/Seattle
Mission
Partially operational Commercial Communications
Bus & Motor
STARLINK, Unknown motor
Mass
260 kg wet, ~248 kg dry
Launch date (UTC)
2020-08-18 (6 years ago)
Launch vehicle
FALCON 9
Launch site
Air Force Eastern Test Range (AFETR)
Object type
Payload
Rocket body
Debris
Shape & HBR
Box + 1 Pan, 10.1 m
Radar Cross Section
13.562 m², Large (>1 m²)

Expand to show TLE details & history
Last TLE update: 7 hours ago

TLE from 7 hours ago
0 STARLINK-1587
1 46157U 20057AS  26062.75002314  .00399124  71039-4  12615-2 0  9994
2 46157  53.0324 246.7245 0003394 247.7956 247.6614 15.90769215  5955
Epoch: 2026-03-03T18:00Z
TLE epoch observation values (Epoch: 2026-03-03T18:00:01.999Z)
Latitude
34.22387°
Longitude
-35.41074°
Altitude
303.408 km
Speed
7.73 km/s
True Right ascension
02h 24m 29s
True Declination
34° 03' 12"
Sunlit
Object was in daylight at epoch
Visualization orbit readout
Latitude
Unknown
Longitude
Unknown
Altitude
Unknown
Speed
Unknown
Apparent Right ascension
Unknown
Apparent Declination
Unknown
Sunlit
N/A
Visualization observer readout
Local Sidereal Time
05:13:33
Azimuth
Unknown
Elevation
Unknown
Doppler factor
Unknown
Orbital elements
Apogee altitude
302.68 km
Perigee altitude
298.147 km
Semi-major axis
6,678.55 km
Eccentricity
0.00034
Inclination
53.0324°
RAAN
246.7245°
Arg. of periapsis
247.7956°
True anomaly
247.62543°
Mean anomaly
247.6614°
Eccentric anomaly
247.64342°
Mean motion
3.97667 °/min
Orbital period
90.53 mins
BSTAR
0.0012615
Loading maneuver chart data...
Computing Atmospheric mass density...

Documentation

Showing up to 5 results
|